This demonstration page uses our WeatherBlox Daily Observations layout. Learn more.

Left ArrowRight Arrow

Hourly Observations for October 13, 2016

Temp ( °F °C ) Dew Point ( °F °C ) Humidity (%) Winds ( mph kmh ) Pressure ( in mb ) Visibility ( mi km ) Precip ( " mm )
12:17 am 00:17 Cloudy 55 13 54 12 94 94 WNW 10 17 30.12 1020 7 11.26538 N/A
12:36 am 00:36 Cloudy 54 12 54 12 100 100 WNW 8 13 30.15 1021 10 16.0934 N/A
12:56 am 00:56 Cloudy 54 12 52 11 94 94 WNW 9 15 30.15 1021 10 16.0934 N/A
1:17 am 01:17 Cloudy 54 12 52 11 94 94 NW 10 17 30.15 1021 10 16.0934 N/A
1:36 am 01:36 Cloudy 54 12 52 11 94 94 NW 10 17 30.15 1021 10 16.0934 N/A
1:56 am 01:56 Cloudy 54 12 52 11 94 94 NW 6 9 30.15 1021 5 8.0467 N/A
2:17 am 02:17 Cloudy 54 12 52 11 94 94 WNW 7 11 30.15 1021 3 4.82802 N/A
2:36 am 02:36 Cloudy 52 11 52 11 100 100 NNW 8 13 30.15 1021 3 4.82802 N/A
2:56 am 02:56 Cloudy 52 11 52 11 100 100 NW 7 11 30.18 1022 3 4.82802 N/A
3:16 am 03:16 Cloudy 52 11 50 10 94 94 NW 10 17 30.18 1022 3 4.82802 N/A
3:36 am 03:36 Cloudy 52 11 50 10 94 94 NW 7 11 30.18 1022 3 4.82802 N/A
3:56 am 03:56 Cloudy 52 11 50 10 94 94 NW 8 13 30.18 1022 2.5 4.02335 N/A
4:16 am 04:16 Cloudy 50 10 50 10 100 100 NW 7 11 30.18 1022 3 4.82802 N/A
4:36 am 04:36 Cloudy 50 10 50 10 100 100 NNW 14 22 30.18 1022 3 4.82802 N/A
4:56 am 04:56 Cloudy 50 10 48 9 94 94 NW 8 13 30.21 1023 7 11.26538 N/A
5:16 am 05:16 Cloudy 50 10 48 9 94 94 NNW 10 17 30.21 1023 7 11.26538 N/A
5:36 am 05:36 Cloudy 50 10 48 9 94 94 NW 8 13 30.21 1023 5 8.0467 N/A
5:56 am 05:56 Cloudy 50 10 48 9 94 94 NNW 8 13 30.21 1023 5 8.0467 N/A
6:16 am 06:16 Cloudy 50 10 48 9 94 94 NNW 9 15 30.21 1023 7 11.26538 N/A
6:36 am 06:36 Cloudy 50 10 48 9 94 94 NNW 8 13 30.21 1023 7 11.26538 N/A
6:56 am 06:56 Cloudy 50 10 48 9 94 94 NNW 10 17 30.21 1023 10 16.0934 N/A
7:16 am 07:16 Cloudy 50 10 46 8 88 88 N 13 20 30.21 1023 10 16.0934 N/A
7:36 am 07:36 Cloudy 48 9 46 8 94 94 N 14 22 30.24 1024 10 16.0934 N/A
7:56 am 07:56 Cloudy 48 9 46 8 94 94 N 12 19 30.24 1024 10 16.0934 N/A
8:16 am 08:16 Cloudy 48 9 46 8 94 94 N 8 13 30.24 1024 10 16.0934 N/A
8:36 am 08:36 Cloudy 50 10 46 8 88 88 NNW 6 9 30.27 1025 10 16.0934 N/A
8:56 am 08:56 Cloudy 50 10 46 8 88 88 N 9 15 30.27 1025 10 16.0934 N/A
9:16 am 09:16 Cloudy 50 10 46 8 88 88 N 7 11 30.27 1025 10 16.0934 N/A
9:36 am 09:36 Cloudy 50 10 46 8 88 88 N 9 15 30.27 1025 10 16.0934 N/A
9:56 am 09:56 Cloudy 50 10 46 8 88 88 N 7 11 30.27 1025 10 16.0934 N/A
10:16 am 10:16 Cloudy 50 10 46 8 88 88 N 6 9 30.27 1025 10 16.0934 N/A
10:36 am 10:36 Cloudy 52 11 46 8 82 82 NNE 10 17 30.27 1025 10 16.0934 N/A
10:56 am 10:56 Cloudy 52 11 46 8 82 82 N 10 17 30.3 1026 10 16.0934 N/A
11:16 am 11:16 Cloudy 52 11 46 8 82 82 NNE 9 15 30.3 1026 10 16.0934 N/A
11:36 am 11:36 Cloudy 54 12 46 8 77 77 NNW 7 11 30.3 1026 10 16.0934 N/A
11:56 am 11:56 Mostly Cloudy 54 12 45 7 72 72 N 3 6 30.3 1026 10 16.0934 N/A
12:16 pm 12:16 Cloudy 55 13 46 8 72 72 NW 6 9 30.3 1026 10 16.0934 N/A
12:37 pm 12:37 Cloudy 55 13 46 8 72 72 N 7 11 30.3 1026 10 16.0934 N/A
12:56 pm 12:56 Mostly Cloudy 57 14 45 7 63 63 N 7 11 30.3 1026 10 16.0934 N/A
1:16 pm 13:16 Partly Cloudy 59 15 45 7 59 59 NW 7 11 30.27 1025 10 16.0934 N/A
1:37 pm 13:37 Partly Cloudy 59 15 43 6 55 55 N 6 9 30.27 1025 10 16.0934 N/A
1:56 pm 13:56 Partly Cloudy 57 14 45 7 63 63 N 6 9 30.3 1026 10 16.0934 N/A
2:16 pm 14:16 Partly Cloudy 59 15 43 6 55 55 N 8 13 30.27 1025 10 16.0934 N/A
2:37 pm 14:37 Mostly Cloudy 59 15 43 6 55 55 NW 5 7 30.24 1024 10 16.0934 N/A
2:56 pm 14:56 Mostly Cloudy 57 14 43 6 59 59 N N/A 30.3 1026 10 16.0934 N/A
3:16 pm 15:16 Partly Cloudy 59 15 43 6 55 55 N 8 13 30.24 1024 10 16.0934 N/A
3:36 pm 15:36 Partly Cloudy 61 16 41 5 48 48 NNW 5 7 30.24 1024 10 16.0934 N/A
3:56 pm 15:56 Sunny 61 16 43 6 52 52 NNW 5 7 30.24 1024 10 16.0934 N/A
4:17 pm 16:17 Sunny 61 16 43 6 52 52 N 5 7 30.24 1024 10 16.0934 N/A
4:36 pm 16:36 Sunny 61 16 41 5 48 48 N 6 9 30.24 1024 10 16.0934 N/A
4:56 pm 16:56 Sunny 61 16 41 5 48 48 NNW 5 7 30.24 1024 10 16.0934 N/A
5:17 pm 17:17 Sunny 61 16 43 6 52 52 N 5 7 30.24 1024 10 16.0934 N/A
5:36 pm 17:36 Sunny 61 16 41 5 48 48 N 6 9 30.24 1024 10 16.0934 N/A
5:56 pm 17:56 Sunny 59 15 41 5 51 51 NNE 5 7 30.24 1024 10 16.0934 N/A
6:17 pm 18:17 Sunny 59 15 41 5 51 51 N N/A 30.24 1024 10 16.0934 N/A
6:36 pm 18:36 Sunny 57 14 41 5 55 55 N N/A 30.24 1024 10 16.0934 N/A
6:56 pm 18:56 Sunny 57 14 41 5 55 55 N N/A 30.24 1024 10 16.0934 N/A
7:17 pm 19:17 Clear 54 12 41 5 63 63 N N/A 30.27 1025 10 16.0934 N/A
7:36 pm 19:36 Clear 52 11 41 5 67 67 N N/A 30.27 1025 10 16.0934 N/A
7:56 pm 19:56 Clear 50 10 41 5 71 71 N N/A 30.27 1025 10 16.0934 N/A
8:17 pm 20:17 Clear 50 10 43 6 76 76 N N/A 30.27 1025 5 8.0467 N/A
8:36 pm 20:36 Clear 46 8 43 6 87 87 N N/A 30.27 1025 10 16.0934 N/A
8:56 pm 20:56 Clear 46 8 43 6 87 87 N N/A 30.3 1026 10 16.0934 N/A
9:17 pm 21:17 Clear 46 8 43 6 87 87 N N/A 30.3 1026 10 16.0934 N/A
9:36 pm 21:36 Clear 45 7 43 6 93 93 N N/A 30.3 1026 10 16.0934 N/A
9:56 pm 21:56 Clear 45 7 43 6 93 93 N N/A 30.3 1026 10 16.0934 N/A
10:16 pm 22:16 Clear 45 7 41 5 87 87 N N/A 30.3 1026 10 16.0934 N/A
10:36 pm 22:36 Clear 43 6 41 5 93 93 N N/A 30.3 1026 10 16.0934 N/A
10:56 pm 22:56 Clear 43 6 41 5 93 93 N N/A 30.3 1026 10 16.0934 N/A
11:16 pm 23:16 Clear 45 7 41 5 87 87 N N/A 30.3 1026 10 16.0934 N/A
11:36 pm 23:36 Clear 43 6 41 5 93 93 N N/A 30.3 1026 10 16.0934 N/A
11:56 pm 23:56 Clear 43 6 41 5 93 93 N N/A 30.3 1026 10 16.0934 N/A

Powered by AerisWeather